Dewpoint
12 13 13 12 11 11 11 9 10 11 11 11 11 11 12 12 11 10 10 9 7 5 4 2 -5 -3 6 8 7 6 5 5 10 11 11 12 11 10 11 11 13 11 8
11 12 13 12 12 12 12 11 11 11 11 12 11 11 11 10 10 11 11 11 11 10 7 5 4 -2 -5 4 9 9 8 5 3 9 12 12 12 12 11 12 12 12 10
11 11 11 12 12 12 12 12 12 12 12 12 11 11 11 11 11 11 11 11 11 10 11 9 7 5 3 -4 -3 4 9 10 8 4 10 13 13 12 12 12 12 12 12
10 11 11 12 12 12 11 10 10 9 9 10 12 12 12 12 12 11 10 10 10 11 11 12 11 9 8 6 3 -3 -4 3 9 11 12 12 13 12 12 12 12 12 12
8 9 9 9 8 6 5 5 6 6 6 8 9 9 9 10 10 10 10 10 10 10 10 10 11 11 10 9 8 6 3 -3 -7 7 11 11 11 12 9 11 12 12 12
5 5 2 1 0 -1 -1 -2 -2 -2 -3 -3 -2 -1 2 4 5 5 5 5 5 6 6 7 7 8 10 10 10 10 9 6 2 9 7 7 9 9 9 10 8 5 7
5 5 4 2 1 0 -1 -1 -2 -2 -3 -3 -3 -2 -2 -1 -1 -2 -3 -3 -3 -3 -3 -1 2 3 4 8 9 9 9 9 9 11 10 7 7 1 3 8 10 10 3
6 5 5 4 3 2 2 1 1 1 1 1 1 0 0 -0 -0 -1 -2 -2 -3 -3 -2 -2 -2 -1 -1 -0 3 7 9 9 9 12 12 10 6 -1 -8 -3 7 10 11
6 5 5 4 4 4 4 3 3 3 2 2 2 2 1 1 1 0 -0 -0 -1 -1 -1 -1 -1 -1 -1 -1 -1 -1 2 6 9 11 12 12 11 6 2 -4 -3 6 11
4 3 4 4 4 4 4 4 4 4 3 3 3 2 2 1 1 0 0 -0 0 0 0 1 1 1 1 -0 -1 -1 -0 4 5 9 11 11 12 10 7 3 0 3 9
3 3 4 4 4 4 4 4 4 3 2 1 1 -0 -1 -2 -1 -2 -1 -1 -1 -0 -0 -0 -0 -1 -0 -0 -1 -0 -0 -1 0 8 9 9 10 9 10 10 6 2 7
4 4 4 3 3 2 2 1 -0 -1 -2 -3 -4 -5 -6 -6 -6 -7 -8 -8 -7 -7 -7 -6 -6 -5 -4 -3 -2 -2 -2 -2 -1 -0 5 5 3 6 7 10 11 8 3
4 3 2 1 1 0 -1 -2 -4 -6 -8 -8 -9 -9 -10 -10 -11 -11 -11 -11 -11 -11 -11 -12 -12 -12 -12 -12 -11 -10 -7 -3 -1 -1 -2 -3 -4 0 5 6 9 10 7
2 1 0 -1 -2 -4 -6 -8 -10 -11 -11 -11 -11 -11 -12 -12 -12 -12 -13 -13 -13 -14 -15 -16 -17 -17 -17 -17 -16 -15 -15 -13 -12 -9 -4 -2 -3 -4 -2 1 6 7 10
-1 -1 -3 -6 -8 -9 -11 -12 -12 -12 -12 -12 -12 -12 -13 -13 -14 -15 -17 -18 -20 -21 -22 -22 -23 -23 -23 -23 -24 -24 -23 -22 -19 -16 -13 -12 -9 -4 -2 -3 -2 2 6
-2 -4 -8 -11 -12 -13 -13 -13 -13 -13 -13 -13 -14 -14 -14 -16 -18 -20 -21 -21 -21 -22 -22 -23 -24 -25 -27 -28 -29 -28 -28 -27 -25 -25 -25 -22 -17 -14 -11 -6 -2 -3 -2
-2 -9 -11 -13 -14 -15 -15 -14 -14 -14 -14 -14 -14 -15 -17 -19 -20 -21 -21 -22 -24 -27 -30 -31 -32 -32 -33 -32 -31 -31 -28 -30 -33 -34 -34 -32 -28 -26 -23 -15 -11 -5 -2
-9 -12 -14 -15 -15 -15 -15 -15 -15 -14 -15 -15 -16 -18 -19 -20 -21 -22 -25 -29 -32 -33 -33 -32 -32 -34 -33 -33 -33 -33 -34 -36 -35 -31 -33 -33 -34 -34 -31 -30 -26 -17 -12
-13 -15 -16 -16 -16 -15 -15 -15 -15 -15 -15 -15 -18 -20 -21 -21 -23 -28 -31 -33 -34 -34 -32 -30 -29 -25 -28 -26 -22 -21 -31 -31 -34 -36 -30 -19 -17 -12 -8 -3 0 -8 -14
-15 -16 -16 -16 -16 -16 -15 -15 -15 -15 -15 -17 -20 -21 -22 -23 -26 -31 -34 -34 -34 -33 -32 -31 -30 -31 -27 -26 -27 -30 -29 -33 -20 -17 -16 -13 -9 -9 -4 1 -0 -3 1
-15 -16 -16 -16 -16 -16 -16 -16 -15 -16 -17 -20 -20 -21 -22 -27 -31 -33 -33 -32 -32 -32 -31 -30 -29 -28 -30 -26 -24 -26 -33 -18 -22 -16 -11 -13 -18 -17 -9 -11 -10 -7 -3
-15 -16 -16 -17 -16 -16 -16 -16 -16 -16 -18 -19 -19 -22 -26 -31 -32 -32 -32 -32 -31 -31 -32 -31 -29 -25 -24 -21 -15 -14 -14 -18 -12 -12 -18 -15 -14 -14 -16 -13 -16 -15 -11
-14 -15 -16 -16 -16 -16 -16 -16 -16 -17 -18 -18 -22 -25 -29 -31 -31 -31 -31 -31 -31 -30 -27 -26 -23 -19 -16 -19 -15 -12 -13 -16 -15 -17 -16 -20 -15 -13 -14 -17 -18 -14 -13
-12 -14 -16 -16 -16 -16 -16 -16 -16 -19 -20 -21 -24 -28 -29 -29 -29 -28 -29 -28 -27 -24 -22 -18 -14 -16 -14 -12 -13 -12 -12 -12 -11 -12 -13 -14 -15 -15 -14 -13 -13 -14 -15
-11 -14 -16 -16 -16 -16 -16 -16 -18 -19 -21 -23 -26 -28 -28 -26 -28 -26 -26 -27 -27 -25 -23 -21 -19 -18 -17 -13 -12 -12 -11 -11 -11 -11 -11 -12 -12 -13 -14 -13 -13 -13 -13
-11 -14 -15 -16 -16 -16 -16 -17 -18 -19 -22 -26 -26 -27 -26 -28 -29 -28 -27 -28 -28 -25 -24 -23 -21 -19 -17 -13 -13 -12 -12 -11 -11 -11 -11 -11 -11 -11 -12 -12 -12 -12 -12
Wind_Speed
24 21 16 10 6 7 8 11 11 12 12 12 12 12 13 15 15 15 16 17 16 17 17 17 16 14 12 13 13 12 12 11 11 10 9 7 4 4 5 5 7 5 7
19 18 25 16 14 12 12 11 11 13 13 12 12 12 13 12 12 13 12 13 15 16 16 15 15 15 13 11 10 11 12 11 10 10 11 9 5 3 3 2 2 3 4
18 15 22 21 14 11 9 11 12 12 12 15 14 14 14 13 11 11 12 13 14 15 15 15 14 14 13 12 10 8 8 10 10 10 12 9 9 4 2 1 2 1 1
17 12 11 11 9 8 8 10 10 8 8 9 11 12 12 11 10 11 10 10 11 11 11 13 14 13 12 11 11 11 8 6 7 10 8 5 7 6 4 3 2 3 3
9 8 10 8 8 10 11 10 9 9 8 6 5 5 5 7 8 8 8 9 9 9 9 10 10 11 12 11 10 9 9 9 7 9 7 8 5 8 4 2 3 5 5
5 5 9 11 10 10 9 9 9 9 8 7 6 5 5 5 6 6 8 9 9 9 8 9 9 9 9 9 10 10 8 8 7 7 7 7 7 6 6 5 6 7 10
5 4 6 7 7 7 7 7 7 7 7 7 7 7 7 7 7 8 9 9 10 11 12 11 11 10 10 10 10 10 10 9 9 9 8 8 9 10 9 8 8 9 10
6 5 5 4 4 5 5 5 5 5 6 6 7 8 8 9 9 9 9 10 10 11 11 11 11 11 11 11 11 12 12 11 9 8 10 10 13 11 13 13 11 10 11
7 4 3 4 4 3 3 3 3 4 5 6 7 8 8 9 10 10 10 10 10 10 10 11 11 12 12 12 12 13 13 12 10 8 9 9 14 14 11 13 15 14 12
5 4 3 2 1 2 2 3 4 5 6 7 8 8 9 9 10 11 11 11 12 12 13 13 13 13 14 14 14 14 13 12 9 9 10 12 16 14 15 14 13 15 15
5 5 4 2 2 1 2 4 4 4 6 6 6 7 8 9 11 12 13 13 14 15 16 16 16 16 16 16 17 15 15 15 14 10 10 17 17 17 14 13 16 16 16
6 5 4 3 0 2 2 3 3 4 6 6 8 9 10 11 12 13 12 13 13 14 15 15 16 17 17 18 19 17 16 17 17 16 14 21 19 19 19 20 17 17 19
6 5 4 2 1 0 1 1 3 5 6 7 9 11 11 12 13 15 17 18 19 19 20 21 20 20 19 20 20 19 19 20 19 19 20 24 24 23 23 22 22 22 20
7 4 3 3 2 2 1 1 3 5 7 8 9 10 11 12 13 14 15 16 17 18 18 19 21 21 22 22 22 23 22 22 22 23 24 24 25 26 26 27 26 25 24
5 4 5 5 4 3 2 3 4 5 6 7 8 10 12 14 15 17 18 20 22 24 25 26 27 27 26 26 25 25 26 26 26 26 28 28 29 27 28 29 29 29 29
9 9 7 6 4 4 3 2 3 4 6 9 12 15 16 17 18 19 21 23 25 27 28 30 30 32 32 31 30 29 29 29 28 29 31 32 32 32 30 30 30 31 31
13 12 10 7 5 3 2 1 3 7 10 11 13 14 15 17 19 22 24 25 27 28 29 29 30 31 32 32 31 32 31 32 34 35 35 35 35 34 31 32 32 32 32
15 13 10 8 6 4 1 3 6 7 9 10 12 15 17 20 22 24 25 26 29 29 29 29 30 32 32 32 33 33 35 36 36 33 33 32 33 34 36 35 32 32 34
16 14 12 9 6 3 1 3 5 6 8 10 12 16 19 22 24 26 26 28 29 29 28 28 29 29 33 34 32 33 36 34 36 36 30 27 25 23 24 23 21 29 31
17 16 13 10 7 4 3 3 5 7 9 11 14 17 20 23 26 27 27 27 28 28 28 29 30 31 31 33 37 40 40 42 30 22 19 18 17 16 19 21 23 20 18
19 16 14 11 9 6 4 3 4 6 8 11 14 19 22 24 25 25 25 25 26 26 27 28 28 30 32 32 37 40 42 16 21 17 13 19 20 17 18 19 21 18 22
20 17 15 12 10 8 6 6 6 7 10 13 16 20 22 23 23 23 24 24 25 25 25 25 26 27 27 26 26 31 17 31 4 14 27 18 15 17 20 20 25 22 23
21 19 16 14 12 9 7 5 6 8 10 11 17 20 22 23 23 23 22 23 23 24 24 24 24 24 26 26 20 14 13 10 34 21 17 27 15 15 21 31 32 26 26
22 21 18 15 13 9 6 5 5 8 11 15 19 21 22 22 23 24 24 24 24 24 24 23 21 24 24 24 22 18 20 27 28 31 24 28 35 31 27 24 27 32 34
24 23 19 17 13 9 7 6 6 9 13 17 19 20 21 20 22 22 23 25 26 25 25 25 26 26 27 26 23 24 23 26 26 30 43 33 30 31 33 32 32 33 34
25 22 20 17 13 9 7 6 8 11 14 17 17 19 20 22 23 23 25 27 28 27 28 30 30 30 29 28 28 26 27 28 29 29 34 41 39 37 36 33 32 33 33
Wind_Direction
69 72 90 102 109 93 80 92 96 89 83 79 75 71 69 64 60 51 48 44 45 45 46 48 48 50 53 51 53 51 49 53 51 54 57 59 66 89 100 99 91 84 78
61 55 70 96 96 95 89 92 101 93 83 80 76 71 66 61 58 58 56 53 45 39 39 41 45 45 43 39 43 46 46 47 52 52 45 42 37 59 85 97 76 75 76
73 57 41 89 92 101 100 97 88 85 79 72 71 67 65 64 57 53 48 46 42 37 33 30 32 35 37 36 31 31 33 40 49 54 52 27 14 19 16 17 7 4 50
72 70 51 82 90 85 88 86 81 76 71 69 65 68 66 65 57 53 45 39 40 42 41 31 23 21 22 24 23 19 15 17 36 50 35 23 19 353 352 337 337 306 280
86 80 68 96 77 65 68 73 74 73 69 68 62 55 44 40 42 37 35 32 30 21 18 20 26 24 11 9 9 10 9 8 11 19 4 336 60 303 319 319 296 287 280
110 84 47 72 68 68 71 72 67 65 59 57 50 35 26 18 11 9 4 2 3 6 4 359 358 359 13 5 356 345 358 359 353 1 346 331 342 304 305 296 287 268 275
112 93 64 67 74 72 65 56 47 42 38 36 33 28 26 23 20 16 7 1 357 355 354 354 352 348 341 337 334 336 340 344 359 356 336 321 295 287 282 285 287 280 277
132 107 89 86 71 60 53 49 49 43 35 30 22 15 12 8 5 6 3 360 356 354 352 353 353 351 343 333 329 327 330 334 347 338 326 335 303 304 292 280 276 289 270
142 133 106 81 47 45 44 38 31 21 14 12 2 355 355 355 352 353 352 348 346 345 341 340 339 338 335 333 330 324 322 328 342 313 320 298 289 300 295 289 284 270 275
149 142 148 139 89 1 359 1 7 2 355 352 349 347 350 349 346 348 345 341 341 337 333 330 327 326 323 321 321 321 322 314 307 332 315 284 284 295 303 295 284 279 274
161 172 180 191 170 324 336 345 347 346 353 358 349 357 357 356 357 356 354 350 347 343 340 336 332 329 324 319 316 314 311 308 313 309 299 278 285 294 286 293 288 276 271
176 192 213 199 36 35 1 4 11 18 20 19 18 14 12 8 3 357 353 351 347 343 340 335 332 329 326 324 320 317 311 305 302 296 297 287 290 288 287 286 284 278 270
192 203 205 185 123 314 335 8 21 27 24 15 10 6 3 359 357 353 348 344 342 340 336 334 331 328 327 324 320 317 312 308 302 293 287 287 287 285 285 282 280 280 272
205 212 211 204 175 175 158 79 44 29 19 11 7 3 359 355 352 348 346 344 341 339 336 333 331 328 325 323 319 315 312 307 302 296 292 287 286 283 282 279 278 275 273
203 222 214 186 175 159 107 71 50 33 18 7 359 357 356 355 354 353 349 346 343 340 337 334 331 327 324 320 316 313 310 307 303 299 293 290 287 284 280 277 275 273 270
209 216 204 191 175 155 126 83 36 10 4 2 2 3 2 359 354 350 345 341 338 336 332 329 327 324 323 320 317 313 309 305 300 298 296 293 291 288 282 280 277 273 269
214 205 198 190 176 155 125 46 16 13 11 7 0 354 351 349 349 346 342 336 333 332 330 328 326 324 321 319 317 314 311 307 306 302 299 297 293 289 288 281 276 275 272
202 200 196 188 183 184 198 9 9 4 358 353 350 347 347 346 344 341 338 336 336 336 334 330 328 324 321 320 317 313 311 312 310 307 303 296 292 290 286 284 281 275 273
198 195 194 191 192 200 308 340 340 340 338 339 343 344 343 342 342 341 339 336 335 333 333 331 330 329 327 325 322 315 317 315 315 308 304 306 304 299 298 297 276 268 273
195 197 198 199 203 217 249 291 317 325 330 334 341 343 342 340 340 339 336 333 332 331 329 328 327 325 326 324 320 320 318 322 326 325 316 301 289 278 286 273 273 275 259
196 197 201 204 209 220 237 262 290 309 320 332 337 339 340 339 336 334 331 329 326 324 325 325 323 323 322 324 323 317 319 336 309 305 273 286 297 309 289 297 292 279 276
195 198 201 206 212 222 238 256 277 308 324 328 335 337 335 333 329 328 328 327 326 324 323 321 321 321 322 324 324 327 325 322 213 285 302 307 299 282 290 287 288 297 293
194 197 200 206 214 225 240 264 302 323 334 327 327 328 327 329 331 329 327 327 327 325 324 324 321 320 316 319 320 315 321 302 310 322 287 300 302 278 282 296 294 290 281
189 196 201 206 216 225 240 268 301 321 325 322 324 325 330 332 330 330 332 331 328 325 321 318 316 314 315 310 308 298 281 284 297 302 295 288 291 298 300 293 292 287 289
188 196 199 207 215 225 240 265 301 316 319 321 324 326 328 327 327 328 326 324 323 319 315 313 311 309 308 303 300 298 291 287 284 282 294 297 289 282 281 284 284 287 289
192 192 197 204 211 222 243 275 301 312 317 322 322 322 324 325 325 323 319 319 317 315 313 311 309 307 304 299 294 290 287 286 286 285 285 289 291 290 286 288 286 285 284
Height
1543 1544 1544 1544 1544 1542 1544 1544 1544 1543 1544 1545 1544 1543 1542 1540 1540 1539 1538 1537 1536 1535 1534 1533 1532 1531 1531 1531 1530 1530 1530 1530 1530 1530 1530 1531 1531 1530 1530 1531 1531 1531 1531
1546 1544 1538 1545 1544 1544 1543 1542 1545 1544 1545 1545 1545 1544 1542 1542 1541 1541 1540 1539 1538 1537 1535 1535 1534 1533 1533 1532 1532 1532 1531 1531 1531 1531 1532 1532 1532 1532 1532 1532 1532 1531 1532
1548 1545 1539 1544 1545 1546 1547 1546 1545 1545 1545 1546 1546 1544 1543 1543 1542 1542 1541 1540 1539 1538 1537 1537 1536 1535 1535 1534 1533 1533 1532 1532 1532 1533 1534 1534 1533 1533 1533 1533 1534 1533 1533
1548 1547 1547 1546 1546 1547 1547 1546 1546 1546 1546 1546 1546 1546 1545 1543 1543 1542 1541 1540 1539 1539 1539 1538 1537 1536 1536 1535 1535 1534 1534 1533 1533 1534 1536 1536 1535 1534 1534 1534 1534 1533 1533
1550 1551 1549 1547 1547 1547 1547 1547 1547 1547 1548 1547 1546 1546 1545 1544 1543 1543 1542 1542 1541 1540 1539 1539 1538 1537 1536 1536 1535 1535 1535 1534 1534 1534 1536 1535 1535 1533 1533 1534 1534 1533 1533
1551 1550 1548 1548 1548 1548 1548 1548 1548 1548 1548 1547 1547 1546 1546 1545 1544 1543 1542 1541 1540 1540 1539 1538 1538 1537 1536 1536 1536 1534 1534 1534 1534 1535 1534 1534 1534 1533 1533 1533 1533 1532 1532
1551 1551 1550 1550 1549 1549 1549 1549 1549 1549 1549 1548 1548 1548 1546 1546 1545 1543 1543 1542 1541 1540 1539 1538 1538 1537 1537 1536 1535 1534 1534 1534 1534 1535 1534 1533 1533 1532 1532 1531 1532 1532 1531
1551 1551 1551 1552 1552 1551 1552 1551 1551 1551 1550 1548 1548 1548 1547 1545 1544 1543 1543 1542 1541 1540 1540 1539 1538 1537 1536 1535 1535 1534 1534 1534 1534 1535 1534 1534 1531 1531 1531 1531 1530 1530 1530
1550 1551 1551 1552 1552 1552 1552 1552 1552 1550 1550 1549 1549 1549 1547 1545 1545 1543 1542 1542 1541 1540 1539 1538 1537 1537 1536 1535 1534 1534 1533 1533 1533 1533 1533 1532 1530 1530 1528 1529 1529 1529 1528
1549 1550 1551 1552 1552 1552 1552 1551 1551 1551 1550 1549 1549 1548 1546 1545 1544 1542 1541 1541 1540 1539 1538 1537 1537 1536 1535 1534 1534 1533 1532 1531 1531 1532 1531 1529 1528 1527 1527 1526 1526 1527 1527
1549 1549 1550 1550 1551 1551 1551 1551 1551 1552 1550 1548 1549 1547 1545 1543 1542 1541 1540 1540 1538 1538 1537 1536 1535 1535 1534 1533 1532 1531 1531 1529 1529 1529 1529 1526 1526 1526 1524 1524 1523 1523 1523
1548 1549 1549 1549 1550 1550 1551 1551 1551 1550 1548 1548 1546 1544 1543 1542 1540 1541 1541 1539 1538 1537 1536 1535 1534 1532 1531 1530 1529 1529 1528 1527 1526 1525 1525 1522 1523 1522 1522 1522 1520 1520 1520
1547 1548 1548 1548 1549 1549 1549 1549 1549 1548 1547 1545 1544 1543 1542 1541 1541 1540 1539 1537 1536 1535 1534 1532 1531 1529 1528 1527 1526 1525 1524 1523 1522 1521 1521 1519 1519 1518 1518 1517 1517 1517 1516
1545 1546 1546 1547 1547 1547 1547 1548 1548 1547 1546 1545 1544 1543 1543 1542 1540 1539 1537 1536 1534 1533 1532 1530 1528 1527 1526 1525 1524 1522 1520 1519 1517 1516 1515 1514 1514 1513 1513 1512 1512 1512 1512
1543 1544 1545 1545 1545 1545 1546 1547 1547 1546 1546 1545 1545 1544 1543 1542 1540 1539 1537 1536 1534 1533 1531 1529 1527 1525 1523 1522 1520 1518 1517 1515 1513 1511 1509 1508 1507 1507 1507 1506 1506 1506 1506
1542 1543 1544 1544 1544 1545 1545 1545 1546 1546 1545 1545 1544 1543 1542 1541 1539 1538 1537 1535 1533 1531 1529 1527 1525 1522 1519 1517 1516 1514 1512 1510 1508 1506 1504 1502 1501 1500 1501 1500 1499 1499 1499
1539 1540 1541 1542 1543 1543 1544 1544 1544 1544 1544 1543 1542 1542 1541 1539 1538 1536 1534 1533 1531 1528 1526 1523 1520 1518 1515 1512 1509 1507 1505 1504 1503 1501 1499 1496 1495 1494 1493 1492 1492 1491 1491
1536 1538 1539 1540 1541 1542 1543 1543 1543 1543 1542 1542 1541 1540 1539 1538 1536 1534 1532 1530 1527 1524 1522 1519 1516 1513 1510 1507 1504 1501 1498 1496 1494 1493 1492 1490 1488 1487 1486 1485 1484 1483 1483
1533 1535 1536 1538 1539 1540 1541 1541 1541 1542 1542 1541 1540 1539 1537 1536 1534 1532 1529 1527 1525 1522 1520 1516 1514 1510 1506 1503 1499 1495 1493 1490 1489 1487 1484 1483 1483 1483 1481 1479 1476 1474 1477
1530 1532 1534 1536 1537 1538 1539 1540 1540 1540 1540 1539 1538 1537 1536 1534 1532 1530 1527 1525 1522 1520 1517 1514 1511 1508 1505 1500 1495 1490 1486 1484 1481 1481 1482 1482 1480 1479 1477 1473 1470 1470 1468
1527 1529 1531 1533 1535 1536 1537 1537 1538 1538 1538 1538 1537 1535 1534 1532 1530 1528 1525 1523 1521 1519 1516 1513 1510 1506 1504 1500 1493 1487 1482 1479 1480 1479 1476 1475 1474 1474 1474 1470 1467 1465 1461
1523 1525 1528 1530 1532 1533 1534 1535 1536 1537 1536 1536 1535 1533 1532 1530 1528 1526 1524 1521 1518 1517 1515 1512 1509 1505 1503 1500 1495 1489 1480 1476 1476 1473 1472 1472 1470 1469 1468 1464 1463 1460 1458
1518 1521 1524 1527 1528 1530 1532 1533 1534 1534 1535 1534 1533 1531 1530 1527 1525 1523 1521 1519 1516 1513 1510 1508 1505 1502 1498 1497 1496 1496 1485 1479 1474 1470 1468 1469 1467 1463 1460 1460 1458 1456 1451
1513 1516 1520 1523 1525 1527 1529 1530 1531 1532 1532 1531 1530 1528 1526 1523 1521 1519 1516 1514 1511 1509 1506 1504 1502 1499 1497 1493 1491 1491 1489 1484 1477 1456 1463 1462 1462 1459 1456 1453 1450 1448 1445
1509 1511 1515 1518 1521 1524 1526 1527 1528 1529 1529 1528 1526 1524 1522 1520 1518 1516 1513 1510 1508 1505 1503 1500 1497 1495 1492 1489 1487 1484 1482 1478 1476 1471 1449 1451 1453 1452 1449 1446 1443 1440 1437
1504 1507 1511 1515 1518 1520 1522 1524 1525 1526 1525 1524 1522 1520 1518 1516 1514 1512 1509 1506 1503 1501 1498 1495 1492 1489 1487 1483 1481 1478 1475 1472 1469 1466 1458 1447 1443 1441 1439 1437 1435 1432 1430